Flag for Austria Weather past 2 weeks in Mattersburg, Burgenland, Austria

Now
57 °F

Cool.


Feels Like: 57 °F
Forecast: 52 / 76 °F
Wind: 2 mph from East

Location: Eisenstadt

Current Time: Sep 19, 2014 at 8:41:35 AM

Latest Report: Sep 19, 2014 at 8:00 AM


Visibility: N/A

Pressure: 30.01 "Hg

Humidity: 93%

Dew point: 55 °F

Location of MattersburgLocation

Historic Weather in Mattersburg — Graph

°F

Mattersburg temperature yesterday

Maximum temperature yesterday: 71 °F (at 3:00 PM)
Minimum temperature yesterday: 51 °F (at 7:00 AM)
Average temperature yesterday: 60 °F

Past Weeks' High & Low Weather Summary

 TemperatureHumidityPressure
High78 °F (Sep 9, 2:00 PM)99% (Sep 9, 9:00 AM)30.09 "Hg (Sep 9, 9:00 AM)
Low51 °F (Sep 18, 7:00 AM)53% (Sep 17, 3:00 PM)29.77 "Hg (Sep 12, 5:00 AM)
Average63 °F84%29.98 "Hg
* Reported Sep 4 7:00 AM — Sep 19 7:00 AM, Mattersburg, Weather by CustomWeather, © 2014

Note: Actual official high and low records may vary slightly from our data, if they occured in-between our weather recording intervals... More about our weather records

Advertising

Mattersburg weather history for previous 24 hours

 ConditionsComfort  
Time TempWeatherWind HumidityBarometerVisibility
7:00 AM
Sep 19
56 °FOvercast.5 mph95%30.00 "Hg5 mi
6:00 AM56 °FPassing clouds.3 mph94%30.00 "Hg6 mi
5:00 AM57 °FPassing clouds.3 mph92%30.00 "Hg6 mi
2:00 AM57 °FOvercast.3 mph92%30.03 "Hg6 mi
11:00 PM
Sep 18
56 °FPassing clouds.1 mph90%30.06 "Hg12 mi
10:00 PM57 °FCool.1 mph89%30.06 "HgN/A
9:00 PM58 °FCool.1 mph85%30.05 "HgN/A
8:00 PM62 °FPassing clouds.3 mph77%30.04 "Hg12 mi
5:00 PM69 °FPassing clouds.7 mph58%30.01 "Hg11 mi
4:00 PM70 °FMild.7 mph54%30.02 "HgN/A
3:00 PM71 °FMild.8 mph53%30.03 "HgN/A
2:00 PM69 °FPartly sunny.8 mph56%30.05 "Hg9 mi
1:00 PM68 °FMild.8 mph57%30.06 "HgN/A
12:00 PM68 °FMild.8 mph58%30.06 "HgN/A
11:00 AM67 °FSunny.9 mph59%30.07 "Hg9 mi
10:00 AM64 °FMild.6 mph67%30.07 "HgN/A
9:00 AM59 °FCool.2 mph80%30.07 "HgN/A
8:00 AM56 °FSunny.1 mph82%30.06 "Hg9 mi
Weather by CustomWeather, © 2014

See weather overviewHow to use our weather pages